Location: Gesvres
(49.0440°N, 2.8518°E)
Time: 15:36:14
(UTC+00:00)

PAYLOAD B - Pass Details

Date: 28 January 2023
Orbit: 849 x 870 km, 99.1° (Epoch: 26 March)

Event Time Altitude Azimuth Distance (km) Brightness Sun altitude
Rises 18:00:49 0° 154° (SSE) 3,424 7.2 -13.5°
Reaches altitude 10° 18:03:11 10° 152° (SSE) 2,489 6.5 -13.8°
Maximum altitude 18:08:40 69° 71° (ENE) 916 4.1 -14.7°
Drops below altitude 10° 18:14:10 10° 349° (N) 2,493 6.7 -15.6°
Sets 18:16:33 0° 347° (NNW) 3,431 7.4 -16.0°
